This demonstration page uses our WeatherBlox Daily Observations layout. Learn more.

Left ArrowRight Arrow

Hourly Observations for May 2, 2021

Temp ( °F °C ) Dew Point ( °F °C ) Humidity (%) Winds ( mph kmh ) Pressure ( in mb ) Visibility ( mi km ) Precip ( " mm )
12:51 am 00:51 Mostly Cloudy 57 13.9 27 -2.8 32 32 SSW 10 17 29.80 1009 10 16 0.00 0.00
1:51 am 01:51 Cloudy 57 13.9 28 -2.2 33 33 SW 12 19 29.81 1009 10 16 0.00 0.00
2:51 am 02:51 Cloudy 57 13.9 30 -1.1 36 36 SSW 10 17 29.79 1009 10 16 0.00 0.00
3:51 am 03:51 Cloudy 57 13.9 31 -0.6 37 37 SSW 9 15 29.77 1008 10 16 0.00 0.00
4:51 am 04:51 Clear 54 12.2 32 0 43 43 SSW 6 9 29.76 1008 10 16 0.00 0.00
5:51 am 05:51 Mostly Clear 52 11.1 33 0.6 49 49 SSW 7 11 29.76 1008 10 16 0.00 0.00
6:51 am 06:51 Mostly Sunny 54 12.2 36 2.2 51 51 S 7 11 29.78 1008 10 16 0.00 0.00
7:51 am 07:51 Sunny 58 14.4 35 1.7 42 42 SSW 8 13 29.77 1008 10 16 0.00 0.00
8:51 am 08:51 Sunny 63 17.2 34 1.1 34 34 WSW 10 17 29.76 1008 10 16 0.00 0.00
9:51 am 09:51 Sunny 67 19.4 36 2.2 32 32 W 12 19 29.75 1008 10 16 0.00 0.00
10:51 am 10:51 Mostly Sunny 65 18.3 37 2.8 36 36 WSW 12 19 29.75 1008 10 16 0.00 0.00
11:51 am 11:51 Mostly Cloudy 63 17.2 41 5 45 45 SW 12 19 29.73 1007 10 16 0.00 0.00
12:51 pm 12:51 Sunny 68 20 43 6.1 40 40 SSW 7 11 29.70 1006 10 16 0.00 0.00
1:51 pm 13:51 Sunny 77 25 48 8.9 36 36 WSW 13 20 29.69 1005 10 16 0.00 0.00
2:51 pm 14:51 Sunny 81 27.2 50 10 34 34 WSW 14 22 29.68 1005 10 16 0.00 0.00
3:51 pm 15:51 Sunny 80 26.7 49 9.4 34 34 SW 15 24 29.67 1005 10 16 0.00 0.00
4:03 pm 16:03 Sunny 80 26.7 49 9.4 34 34 SW 16 26 29.68 1005 10 16 0.00 0.00
4:51 pm 16:51 Sunny 82 27.8 48 8.9 31 31 WSW 13 20 29.68 1005 10 16 0.00 0.00
5:51 pm 17:51 Sunny 81 27.2 49 9.4 33 33 WSW 10 17 29.66 1004 10 16 0.00 0.00
6:51 pm 18:51 Mostly Sunny 82 27.8 49 9.4 32 32 SW 13 20 29.66 1004 10 16 0.00 0.00
7:51 pm 19:51 Cloudy 78 25.6 49 9.4 36 36 NE 8 13 29.70 1006 10 16 0.00 0.00
8:51 pm 20:51 Mostly Cloudy 68 20 48 8.9 49 49 NNE 9 15 29.75 1008 10 16 0.00 0.00
9:51 pm 21:51 Clear 66 18.9 49 9.4 54 54 NNE 6 9 29.79 1009 10 16 0.00 0.00
10:51 pm 22:51 Clear 65 18.3 50 10 59 59 NE 3 6 29.80 1009 9 14 0.00 0.00
11:51 pm 23:51 Clear 63 17.2 51 10.6 65 65 N 5 7 29.81 1010 10 16 0.00 0.00

Powered by Vaisala Xweather